Terminal Aerodrome Forecast
Issued by NWS Wilmington, OH

Current Version | Previous Version | Graphics & Text | Print | Product List | Glossary On
Versions: 1 2 3 4 5 6 7 8 9 10 11 12 13 14 15 16 17 18 19 20 21 22 23 24
477
FTUS41 KILN 191141
TAFILN
TAF
KILN 191141Z 1912/2012 26006KT 4SM BR OVC010
     FM191500 25006KT P6SM OVC007
     FM191600 25006KT P6SM BKN015
     FM191700 25006KT P6SM BKN020 BKN025
     FM191800 25006KT P6SM SCT025 BKN035
     FM191900 25006KT P6SM FEW025 SCT100
     FM200400 00000KT P6SM FEW070 SCT120=

USA.gov is the U.S. government's official web portal to all federal, state and local government web resources and services.